Vertical_Velocity
1 -4 -1 -1 3 1 1 1 -0 -0 1 -2 0 1 -2 0 0 -1 3 -2 -3 -1 0 0 0 -0 1 1 -1 -3 4 5 4 -3 14 -5 -1 -0 -9 -4 -1 -3 -3 -1 1
1 -1 -4 0 1 -2 -0 -2 0 0 -0 -2 1 -2 -1 -1 -1 1 -1 1 -1 -1 -1 1 0 1 1 1 -0 -2 -2 6 -1 4 0 -1 -4 8 1 -0 -1 0 -2 -1 -0
-2 -0 -4 -2 2 1 1 3 0 -1 0 -1 0 1 -2 0 -1 -6 1 0 -1 -3 1 0 2 0 1 4 0 -3 -0 15 -6 -0 -0 -3 1 -4 -0 2 -1 6 5 -1 -1
-1 -2 -1 -2 -1 5 1 -0 0 -1 -0 -1 2 -2 0 2 2 -6 1 1 -0 1 -1 1 1 0 -0 -2 4 1 -6 6 8 -2 -0 2 -3 -3 -3 -8 -2 -3 -1 -12 3
0 0 -1 -2 -2 5 3 1 -1 2 -1 -1 -4 2 -2 -4 -6 -2 1 1 -0 1 -2 2 -0 2 0 -0 2 -1 11 -1 3 -2 -0 -2 -1 -0 -4 -2 3 -4 -2 5 -3
-2 0 -2 -2 -4 2 3 2 5 0 -1 0 2 0 -0 -19 2 -1 -2 1 1 -1 -1 1 2 0 2 1 2 6 -1 1 4 -0 -5 -2 -1 -2 6 -1 1 0 1 -0 1
-1 -3 -1 -1 -2 -2 5 2 2 -3 1 3 3 1 -1 -10 2 -1 0 0 1 -0 1 -2 7 -2 -0 1 -2 1 -2 1 -4 -1 3 -2 -9 -12 2 -1 -5 1 -1 -2 0
1 -2 -2 0 -0 -4 -2 3 -2 26 20 3 3 1 -28 -0 3 -4 1 1 2 3 -1 -2 2 4 -5 -1 0 -2 -1 2 8 2 -2 4 -11 8 -6 2 -1 -2 2 -4 -1
-3 -3 1 -1 -0 -2 -1 9 3 11 -1 4 5 4 -19 -5 -6 10 -2 3 5 2 4 -1 3 0 0 -2 4 1 -0 1 17 -8 4 -0 -3 9 -0 1 0 -0 -5 -2 -2
-11 -4 -2 -4 -1 -2 1 -3 16 8 1 2 5 5 -1 -0 -0 6 2 2 -0 5 5 1 1 -1 1 7 -9 -3 1 -6 -7 9 -3 1 -5 -8 1 -1 -3 1 4 -2 -5
2 -2 1 1 -1 -2 9 14 6 15 14 -17 -7 -4 -6 9 -0 8 0 3 5 7 -2 -3 -1 -8 -5 -4 1 12 -4 2 5 14 -3 -4 -5 -1 -7 -6 -0 -2 -1 4 2
-2 0 -1 -0 4 -1 2 5 24 6 -6 5 6 -10 4 -3 3 4 6 1 -4 -11 -0 15 -10 -5 0 11 2 1 -1 -6 -2 6 -4 -2 -6 -7 -2 -10 -3 2 -0 -3 2
-3 -0 3 1 -3 -0 -5 4 24 20 10 -12 3 -6 12 4 4 3 7 3 -3 1 -0 0 -13 -0 10 -1 7 -4 2 -3 4 20 5 0 -12 -7 3 -5 -0 -1 -1 0 1
2 -2 -3 0 -1 4 6 -2 9 45 11 0 -19 -48 -10 1 -19 5 5 9 1 -6 1 -5 12 -3 5 -3 -1 5 -1 1 -4 4 -1 6 -10 -11 -9 -10 6 -4 2 4 0
0 -0 4 -1 2 2 2 7 8 25 14 -4 -10 -2 24 -35 31 -16 6 12 -1 -8 12 -24 -8 4 -1 -10 2 -17 12 7 -1 -1 8 -8 17 -32 -1 -5 7 -4 2 1 2
2 -2 -4 6 1 5 1 6 10 23 -5 -12 10 -12 -1 -16 -4 20 -6 13 11 5 6 -2 -2 13 -7 -2 -1 9 -1 -2 -2 0 11 -13 12 -12 -2 5 5 3 1 -1 3
1 -2 -3 1 -5 5 6 1 23 6 0 -2 -1 6 -6 -1 30 1 -7 -6 -19 8 3 -2 4 -4 -3 7 11 3 7 1 10 10 -10 3 2 -16 -5 -3 -1 -1 2 0 -3
1 -4 3 -2 2 2 9 8 12 5 -12 8 -2 10 -16 2 -7 3 4 2 -3 -2 7 -4 21 2 -7 -15 -18 -11 -1 -6 -4 -1 -6 -9 -3 -5 -1 -3 1 -2 -0 1 -3
1 1 -7 2 2 3 18 4 -5 -8 -2 -1 13 12 -0 18 -5 22 -13 -5 -0 -10 -10 2 -2 13 0 1 1 -6 3 -10 9 -5 14 -8 -6 -16 -34 -8 26 -6 -1 -0 -0
5 -0 -7 0 -1 12 17 -15 -6 -8 3 -2 12 -3 -1 -23 11 8 6 -9 -2 -12 6 6 15 -5 2 4 -1 8 -1 14 2 5 0 -6 -3 -11 -2 20 -7 0 -1 -2 -0
5 -8 -0 2 9 16 -14 -24 3 -13 6 12 -1 23 -5 -2 -22 0 -18 17 -3 6 2 12 -1 -3 14 -7 -11 -5 -7 3 9 -0 1 0 -16 15 -13 3 -3 -2 -4 -1 0
8 -7 4 17 5 -2 -19 -14 15 18 21 -8 10 -0 9 11 -12 21 -20 -5 5 -3 -29 -14 2 7 -22 5 -1 3 -3 5 12 -9 -10 3 -40 15 -2 -5 -3 -2 -4 -1 1
0 -7 2 5 40 -2 2 -10 -11 -1 -2 9 -9 3 -0 11 24 -3 7 15 -7 -6 -35 -16 -14 10 30 14 5 -5 -4 -5 -4 9 -13 10 -9 -13 1 4 -7 -2 -3 -5 -1
10 -1 -3 1 2 26 4 -11 0 -5 -23 7 -5 6 9 2 16 -9 14 -8 5 5 0 4 13 -18 -23 -33 -6 -5 -8 -1 3 14 -13 -23 -11 7 8 -4 5 7 -2 -3 -2
5 -1 -0 -3 1 -1 26 16 13 1 -12 8 -16 -5 11 -9 16 -14 8 -1 9 3 6 2 -6 9 -11 27 -6 -0 -3 0 -1 -9 8 -16 1 -5 -6 -4 -6 2 13 7 -3
20 3 -2 -3 -4 5 6 -7 -1 -9 11 -6 -23 2 7 17 -23 -20 13 -3 -23 -2 -5 -2 -6 -1 -4 -3 11 -5 -3 3 2 -4 -1 5 -17 -7 -6 2 2 3 5 1 -3
-2 3 5 2 -2 -4 -4 -5 26 36 9 -8 -15 15 2 -11 56 33 36 24 6 2 -15 -7 -6 5 -11 -1 4 9 -12 -4 -3 -0 -4 -2 -17 1 -1 -2 -4 3 6 -0 5
Height
3115 3116 3115 3118 3120 3121 3123 3124 3125 3126 3127 3128 3128 3128 3128 3128 3127 3127 3127 3128 3127 3128 3129 3131 3131 3133 3135 3137 3139 3142 3147 3147 3148 3149 3150 3148 3150 3151 3153 3154 3155 3154 3155 3155 3154
3105 3107 3108 3109 3112 3115 3116 3118 3120 3121 3122 3123 3124 3124 3124 3125 3125 3124 3125 3124 3125 3126 3127 3129 3130 3132 3134 3136 3138 3141 3144 3146 3145 3147 3148 3147 3149 3151 3152 3152 3152 3152 3151 3152 3152
3097 3098 3099 3101 3103 3107 3110 3111 3113 3115 3117 3117 3119 3120 3121 3121 3122 3119 3121 3121 3122 3123 3125 3127 3129 3131 3134 3136 3137 3139 3141 3144 3142 3143 3144 3145 3147 3147 3149 3151 3152 3153 3150 3148 3149
3086 3088 3091 3092 3094 3097 3101 3104 3106 3108 3111 3112 3114 3115 3117 3118 3122 3116 3117 3117 3119 3120 3123 3124 3127 3129 3132 3133 3136 3137 3138 3139 3140 3139 3141 3143 3143 3144 3145 3148 3147 3147 3148 3143 3145
3075 3078 3080 3083 3085 3089 3091 3096 3098 3101 3104 3106 3108 3109 3111 3111 3114 3114 3114 3115 3115 3117 3119 3123 3125 3128 3130 3132 3133 3132 3136 3135 3136 3136 3138 3138 3140 3140 3140 3142 3143 3142 3142 3142 3140
3064 3066 3068 3073 3076 3080 3083 3087 3090 3093 3096 3099 3102 3103 3105 3105 3108 3110 3110 3112 3113 3114 3116 3120 3123 3126 3127 3129 3130 3131 3131 3132 3133 3133 3133 3134 3136 3134 3136 3136 3137 3135 3136 3137 3136
3054 3054 3057 3061 3065 3070 3074 3078 3083 3086 3088 3091 3094 3095 3094 3101 3103 3104 3105 3107 3109 3111 3113 3117 3120 3121 3124 3125 3125 3126 3128 3128 3128 3130 3130 3129 3130 3129 3131 3130 3130 3130 3130 3131 3132
3041 3044 3045 3048 3053 3059 3065 3070 3074 3076 3077 3082 3085 3087 3082 3093 3097 3099 3101 3103 3105 3107 3110 3113 3116 3118 3120 3121 3122 3123 3125 3126 3127 3126 3125 3127 3125 3129 3126 3126 3125 3125 3126 3126 3128
3033 3033 3034 3037 3042 3048 3055 3060 3066 3067 3070 3073 3078 3079 3078 3083 3089 3095 3096 3099 3101 3103 3106 3110 3113 3115 3117 3119 3122 3122 3121 3122 3123 3122 3123 3122 3123 3124 3122 3121 3121 3121 3122 3122 3123
3028 3026 3026 3027 3032 3038 3046 3053 3057 3061 3063 3065 3068 3073 3074 3078 3083 3089 3092 3094 3097 3099 3102 3106 3109 3112 3112 3115 3114 3118 3118 3119 3120 3119 3118 3119 3117 3118 3119 3118 3117 3118 3118 3117 3117
3022 3021 3021 3020 3023 3028 3039 3047 3052 3054 3040 3048 3053 3059 3068 3071 3077 3080 3085 3088 3092 3094 3096 3100 3104 3102 3107 3109 3113 3114 3115 3115 3117 3117 3114 3115 3114 3113 3114 3113 3112 3112 3112 3113 3112
3017 3016 3015 3014 3015 3019 3028 3035 3041 3042 3037 3037 3046 3049 3061 3065 3068 3073 3077 3081 3083 3086 3094 3098 3093 3101 3104 3107 3108 3110 3111 3112 3113 3113 3110 3109 3108 3107 3106 3105 3106 3105 3106 3106 3106
3011 3009 3009 3009 3010 3011 3017 3024 3031 3032 3029 3027 3035 3042 3051 3059 3062 3065 3070 3074 3076 3082 3086 3087 3090 3095 3100 3102 3104 3105 3106 3108 3110 3109 3107 3104 3100 3098 3098 3097 3098 3099 3098 3099 3099
3006 3004 3004 3003 3006 3005 3008 3015 3020 3019 3020 3013 3022 3026 3037 3047 3051 3058 3062 3071 3074 3075 3081 3084 3089 3088 3093 3095 3099 3100 3103 3104 3105 3106 3104 3102 3095 3095 3095 3093 3093 3092 3092 3091 3090
3000 2999 2998 2998 2999 2999 3004 3008 3012 3013 2995 3000 3008 3023 3028 3033 3046 3049 3057 3063 3066 3069 3077 3076 3079 3081 3084 3089 3094 3096 3100 3101 3101 3101 3099 3098 3096 3088 3088 3087 3089 3086 3085 3084 3084
2993 2993 2993 2994 2993 2994 2996 3000 3003 3004 2985 2992 2997 3002 3016 3023 3036 3043 3049 3056 3062 3066 3068 3073 3074 3078 3079 3086 3089 3094 3095 3097 3097 3098 3090 3091 3092 3083 3082 3084 3085 3083 3082 3081 3079
2985 2986 2986 2986 2987 2990 2993 2995 3001 2992 2989 2988 2989 2991 2997 3008 3024 3030 3035 3042 3048 3056 3059 3066 3067 3071 3073 3080 3083 3087 3092 3093 3089 3087 3080 3083 3082 3079 3079 3079 3078 3077 3077 3076 3074
2978 2979 2980 2980 2983 2986 2988 2990 2982 2979 2982 2982 2986 2990 2996 3004 3016 3024 3029 3035 3040 3044 3052 3056 3060 3061 3063 3070 3074 3077 3084 3081 3079 3074 3072 3078 3074 3072 3073 3072 3074 3072 3071 3070 3068
2970 2971 2972 2974 2977 2979 2981 2979 2974 2976 2978 2984 2987 2985 2993 3000 3005 3017 3018 3018 3027 3036 3043 3047 3051 3054 3056 3063 3071 3072 3071 3079 3077 3075 3071 3071 3069 3069 3070 3071 3071 3068 3067 3064 3063
2962 2963 2966 2967 2969 2972 2972 2969 2970 2975 2976 2978 2976 2979 2982 2987 2999 3005 3010 3011 3020 3027 3039 3042 3047 3049 3055 3059 3061 3064 3070 3074 3074 3070 3066 3059 3062 3062 3065 3067 3064 3063 3061 3059 3059
2958 2957 2960 2960 2962 2962 2958 2959 2965 2969 2971 2971 2972 2976 2978 2981 2985 2993 2995 3004 3012 3021 3031 3038 3042 3046 3049 3046 3050 3057 3059 3063 3065 3061 3057 3055 3054 3054 3059 3062 3061 3061 3059 3057 3056
2953 2954 2954 2953 2956 2953 2952 2953 2960 2961 2968 2964 2965 2966 2972 2977 2981 2988 2988 2994 3002 3013 3015 3024 3035 3036 3037 3042 3044 3048 3050 3055 3055 3055 3055 3056 3049 3053 3056 3056 3056 3058 3057 3055 3054
2949 2948 2948 2949 2945 2944 2947 2948 2951 2957 2959 2963 2962 2964 2969 2972 2979 2981 2987 2995 2997 3002 3005 3018 3023 3029 3035 3037 3037 3037 3044 3047 3049 3052 3043 3048 3046 3046 3050 3051 3053 3053 3053 3054 3053
2946 2944 2943 2942 2943 2941 2943 2943 2946 2950 2953 2958 2958 2959 2962 2964 2972 2974 2982 2987 2990 2995 3003 3012 3015 3014 3012 3023 3028 3031 3033 3036 3041 3040 3039 3032 3041 3045 3046 3049 3051 3051 3050 3050 3050
2941 2940 2939 2937 2938 2934 2933 2933 2939 2943 2946 2952 2950 2953 2958 2961 2966 2967 2978 2979 2984 2990 2998 3004 3006 3012 3015 3019 3020 3022 3024 3028 3028 3029 3031 3031 3032 3038 3042 3044 3044 3046 3046 3046 3045
2937 2937 2935 2932 2931 2930 2928 2927 2931 2936 2940 2940 2942 2951 2953 2957 2956 2960 2970 2971 2972 2982 2990 2998 3002 3008 3010 3013 3015 3017 3018 3020 3022 3025 3023 3027 3022 3033 3036 3037 3038 3039 3039 3037 3039
2932 2932 2930 2927 2928 2928 2925 2924 2923 2929 2929 2930 2940 2946 2945 2949 2957 2959 2964 2970 2969 2971 2978 2988 2996 3001 3002 3009 3013 3008 3009 3013 3014 3016 3018 3016 3019 3026 3027 3029 3030 3031 3031 3031 3032